Showing default

QIANFAN-58, 62788

Orbit data source: Space-Track

QIANFAN-58, 62788 is a Chinese payload satellite in LEO that was launched on Thu, 23 Jan 2025 UTC via a CHANG ZHENG 6A launch vehicle from the Taiyaun Space Center, China (TSC). Payload-class satellites include a variety of spacecraft equipped with specific instruments for various scientific and technological missions. These include communications satellites like Starlink; space stations such as the ISS; scientific satellites like the Hubble; Earth observation satellites from companies like Planet Labs, Umbra, and HawkEye 360; GPS; miniature CubeSats for education and research; and military/defense satellites.

Loading next visibility...
Identifier
62788, 2025-016D
Orbit
LEO
Country
Flag of CNCN / PRC
Related business
Manufacturer
SECM
Mission
Operational Commercial Communications
Bus & Motor
QIANFAN, Unknown motor
Mass
267 kg wet, ~267 kg dry
Launch date (UTC)
2025-01-23 (1 year ago)
Launch vehicle
CHANG ZHENG 6A
Launch site
Taiyaun Space Center, China (TSC)
Object type
Payload
Rocket body
Debris
Shape & HBR
Box + 1 Pan, 1.3 m
Radar Cross Section
13.200 m², Large (>1 m²)

Expand to show TLE details & history
Last TLE update: 6 hours ago

TLE from 6 hours ago
0 QIANFAN-58
1 62788U 25016D   26035.78900499  .00000121  00000-0  16900-3 0  9990
2 62788  88.9712  97.4360 0014328 178.9491 181.1693 13.50995535 54546
Epoch: 2026-02-04T18:56Z
TLE epoch observation values (Epoch: 2026-02-04T18:56:10.031Z)
Latitude
0.00002°
Longitude
38.44365°
Altitude
1,082.221 km
Speed
7.306 km/s
True Right ascension
06h 29m 44s
True Declination
0° 00' 00"
Sunlit
Object was in full shadow at epoch
Visualization orbit readout
Latitude
Unknown
Longitude
Unknown
Altitude
Unknown
Speed
Unknown
Apparent Right ascension
Unknown
Apparent Declination
Unknown
Sunlit
N/A
Visualization observer readout
Local Sidereal Time
03:18:56
Azimuth
Unknown
Elevation
Unknown
Doppler factor
Unknown
Orbital elements
Apogee altitude
1,076.315 km
Perigee altitude
1,054.984 km
Semi-major axis
7,443.786 km
Eccentricity
0.00143
Inclination
88.9712°
RAAN
97.436°
Arg. of periapsis
178.9491°
True anomaly
181.16596°
Mean anomaly
181.1693°
Eccentric anomaly
181.16763°
Mean motion
3.3795 °/min
Orbital period
106.52 mins
BSTAR
0.000169
Loading maneuver chart data...
Computing Atmospheric mass density...
Loading historical data...
Loading historical data...
Loading historical data...
Loading historical data...
Loading historical data...
Loading historical data...
Loading historical data...

Documentation

Showing up to 5 results
|